This demonstration page uses our WeatherBlox Daily Observations layout. Learn more.

Left ArrowRight Arrow

39.29038, -76.61219

Hourly Observations for February 22, 2021

Temp ( °F °C ) Dew Point ( °F °C ) Humidity (%) Winds ( mph kmh ) Pressure ( in mb ) Visibility ( mi km ) Precip ( " mm )
12:54 am 00:54 Cloudy 33 0.6 15 -9.4 47 47 S 7 11 30.40 1029 10 16 N/A
1:54 am 01:54 Partly Cloudy 32 undefined 15 -9.4 50 50 VRB 5 7 30.37 1029 10 16 N/A
2:54 am 02:54 Partly Cloudy 31 -0.6 16 -8.9 54 54 VRB 3 6 30.34 1028 10 16 N/A
3:54 am 03:54 Mostly Cloudy 31 -0.6 18 -7.8 59 59 VRB 3 6 30.31 1026 10 16 N/A
4:54 am 04:54 Cloudy 32 undefined 19 -7.2 59 59 S 7 11 30.27 1025 10 16 N/A
5:54 am 05:54 Cloudy 32 undefined 20 -6.7 61 61 S 6 9 30.23 1024 10 16 N/A
6:54 am 06:54 Cloudy 32 undefined 21 -6.1 64 64 SSE 9 15 30.18 1022 10 16 N/A
7:54 am 07:54 Cloudy 33 0.6 21 -6.1 61 61 VRB 6 9 30.17 1022 10 16 N/A
8:06 am 08:06 Cloudy with Light Snow 33 0.6 21 -6.1 61 61 N N/A 30.17 1022 6 10 0.00 0.00
8:50 am 08:50 Cloudy with Light Snow 34 1 25 -4 70 70 S 3 6 30.15 1021 3 4 0.01 0.25
8:54 am 08:54 Cloudy with Light Snow 32 undefined 24 -4.4 73 73 SSE 5 7 30.14 1021 3 4 0.01 0.25
9:05 am 09:05 Cloudy with Light Snow 32 undefined 25 -3.9 75 75 SSE 6 9 30.14 1021 1 2 0.00 0.00
9:23 am 09:23 Mostly Cloudy with Light Snow 31 -0.6 26 -3.3 82 82 SSE 7 11 30.12 1020 1 1 0.01 0.25
9:43 am 09:43 Mostly Cloudy with Light Snow 31 -0.6 27 -2.8 85 85 SE 3 6 30.10 1019 1 1 0.03 0.76
9:54 am 09:54 Cloudy with Light Snow 31 -0.6 27 -2.8 85 85 N N/A 30.08 1019 1 1 0.04 1.02
10:03 am 10:03 Cloudy with Light Snow 31 -0.6 27 -2.8 85 85 S 5 7 30.08 1019 1 2 0.01 0.25
10:04 am 10:04 Cloudy with Mist and Fog 31 -0.6 27 -2.8 85 85 S 5 7 30.08 1019 1 2 0.01 0.25
10:07 am 10:07 Cloudy with Mist and Fog 31 -0.6 27 -2.8 85 85 VRB 3 6 30.07 1018 2 3 0.02 0.51
10:15 am 10:15 Cloudy with Light Freezing Rain 31 -0.6 27 -2.8 85 85 SSE 3 6 30.06 1018 3 5 0.03 0.76
10:45 am 10:45 Cloudy with Mist and Fog 32 undefined 28 -2.2 85 85 SSW 6 9 30.05 1018 3 5 0.07 1.78
10:54 am 10:54 Cloudy with Mist and Fog 32 undefined 28 -2.2 85 85 S 5 7 30.03 1017 3 5 0.09 2.29
11:23 am 11:23 Cloudy with Mist and Fog 32 undefined 29 -1.7 88 88 SSW 5 7 30.02 1017 3 4 0.07 1.78
11:46 am 11:46 Cloudy with Mist and Fog 32 undefined 29 -1.7 88 88 SW 6 9 30.00 1016 3 4 0.13 3.30
11:54 am 11:54 Cloudy with Mist and Fog 32 undefined 29 -1.7 88 88 SSW 3 6 29.98 1015 3 4 0.15 3.81
11:57 am 11:57 Cloudy with Mist and Fog 33 0.6 29 -1.7 85 85 S 3 6 29.98 1015 3 4 0.01 0.25
12:03 pm 12:03 Cloudy with Rain 33 0.6 29 -1.7 85 85 SW 6 9 30.00 1016 3 4 0.03 0.76
12:05 pm 12:05 Cloudy with Mist and Fog 33 0.6 29 -1.7 85 85 WSW 5 7 29.99 1016 2 3 0.03 0.76
12:15 pm 12:15 Cloudy with Mist and Fog 33 0.6 30 -1.1 89 89 VRB 5 7 29.97 1015 2 3 0.05 1.27
12:24 pm 12:24 Cloudy with Mist and Fog 33 0.6 30 -1.1 89 89 S 5 7 29.95 1014 2 2 0.08 2.03
12:46 pm 12:46 Cloudy with Rain 33 0.6 30 -1.1 89 89 S 6 9 29.91 1013 2 3 0.14 3.56
12:54 pm 12:54 Cloudy with Rain 33 0.6 31 -0.6 92 92 VRB 3 6 29.90 1013 3 5 0.15 3.81
1:14 pm 13:14 Cloudy with Light Rain 34 1.1 31 -0.6 89 89 SSW 6 9 29.88 1012 5 8 0.00 0.00
1:54 pm 13:54 Cloudy with Light Rain 34 1.1 31 -0.6 89 89 SSE 10 17 29.78 1009 6 10 0.00 0.00
2:54 pm 14:54 Cloudy 35 1.7 32 undefined 89 89 SSW 5 7 29.78 1008 7 11 0.00 0.00
3:54 pm 15:54 Cloudy 36 2.2 33 0.6 89 89 WSW 7 11 29.78 1009 10 16 N/A
4:54 pm 16:54 Cloudy 37 2.8 34 1.1 89 89 W 8 13 29.77 1008 10 16 N/A
5:54 pm 17:54 Cloudy 37 2.8 33 0.6 86 86 W 7 11 29.78 1009 10 16 N/A
6:54 pm 18:54 Mostly Cloudy 36 2.2 33 0.6 89 89 WSW 6 9 29.81 1009 10 16 N/A
7:46 pm 19:46 Partly Cloudy 35 1.7 33 0.6 93 93 WSW 3 6 29.83 1010 7 11 N/A
7:54 pm 19:54 Partly Cloudy with Mist and Fog 35 1.7 33 0.6 93 93 W 5 7 29.83 1010 6 10 N/A
8:54 pm 20:54 Partly Cloudy 35 1.7 32 undefined 89 89 N N/A 29.84 1011 8 13 N/A
9:54 pm 21:54 Partly Cloudy 35 1.7 32 undefined 89 89 SW 5 7 29.86 1011 9 14 N/A
10:54 pm 22:54 Mostly Clear 36 2.2 32 undefined 86 86 WSW 8 13 29.86 1011 10 16 N/A
11:54 pm 23:54 Partly Cloudy 33 0.6 30 -1.1 89 89 SW 3 6 29.86 1011 10 16 N/A

Powered by AerisWeather